Regional Weather Roundup
Issued by NWS

Home | Current Version | Previous Version | Graphics & Text | Print | Product List | Glossary Off
Versions: 1 2 3 4 5 6 7 8 9 10 11 12 13 14 15 16 17 18 19 20 21 22 23 24 25 26 27 28 29 30 31 32 33 34 35 36 37 38 39 40 41 42 43 44 45 46 47 48 49 50

000
ASUS43 KMPX 040810
RWRMN
WEATHER ROUNDUP FOR MINNESOTA
NATIONAL WEATHER SERVICE TWIN CITIES/CHANHASSEN MN
300 AM CDT WED MAY 04 2016


NOTE: "FAIR" INDICATES FEW OR NO CLOUDS BELOW 12,000 FEET WITH NO
SIGNIFICANT WEATHER AND/OR OBSTRUCTIONS TO VISIBILITY. N/A MEANS
CURRENT SKY AND/OR WEATHER CONDITIONS ARE NOT AVAILABLE.

MNZ060>063-068>070-040900-
   Twin Cities Metro

CITY           SKY/WX    TMP DP  RH WIND       PRES   REMARKS
TWIN CITIES    CLEAR     52  32  46 NE14      29.90R
ST PAUL        CLEAR     51  33  50 NE10      29.91R
CRYSTAL        CLEAR     50  33  52 N7        29.90R
BLAINE         CLEAR     50  34  53 NE6       29.91R
EDEN PRAIRIE   CLEAR     53  32  44 NE9G18    29.88R
SOUTH ST PAUL  CLEAR     52  32  46 N7G17     29.90R
LAKE ELMO      FAIR      50  34  53 N5        29.90R
$$
MNZ001>005-007-008-013>017-022>024-027-028-040900-
   Northwest Minnesota

CITY           SKY/WX    TMP DP  RH WIND       PRES   REMARKS
BEMIDJI        CLEAR     35  31  85 NW6       29.98S WCI  30
HALLOCK        CLEAR     37  30  75 N6        30.04R
ROSEAU         CLEAR     37  34  87 N6        30.02S
WARROAD        CLEAR     39  36  87 NW5       30.02R
THIEF RVR FALL CLEAR     43  32  65 N9        30.03R
CROOKSTON      CLEAR     37  30  75 NW6       30.04R
FOSSTON        CLEAR     36  32  87 N6        30.01R
DETROIT LAKES  CLEAR     45  36  70 NW5       30.00S
MOORHEAD       CLEAR     43  28  56 N8        30.03R
PARK RAPIDS    CLEAR     40  31  70 NW6       29.98R
MAHNOMEN       FAIR      40  34  80 N6        30.00R
$$
MNZ006-009>011-018-025>026-040900-
   North Central Minnesota

CITY           SKY/WX    TMP DP  RH WIND       PRES   REMARKS
BAUDETTE       CLEAR     42  34  73 N8        29.99R
FLAG ISLAND    CLEAR     45  36  70 N10       30.00R
INTL FALLS     CLEAR     38  31  76 NW6       29.95S
WASKISH        CLEAR     43  36  75 NW6       29.98S
BIG FORK       CLEAR     32  28  86 CALM      29.96R
LONGVILLE      CLEAR     37  34  87 CALM      29.96R
GRAND RAPIDS   CLEAR     37  28  70 CALM      29.95S
CRANE LAKE     CLEAR     28  27  93 CALM      29.95S
ORR            CLEAR     37  30  75 CALM      29.91R
COOK           CLEAR     32  28  86 CALM      29.93S
WALKER         FAIR      37  31  79 W5        29.97S
$$
MNZ012-019>021-037-040900-
   Northeast Minnesota

CITY           SKY/WX    TMP DP  RH WIND       PRES   REMARKS
DULUTH         CLEAR     42  30  62 NW6       29.90S
ELY            CLEAR     39  30  70 NW3       29.90S
HIBBING        CLEAR     30  27  88 CALM      29.92S
EVELETH        CLEAR     43  30  61 NW6       29.92S
DULUTH HARBOR  CLEAR     46  36  66 N17       29.90S
TWO HARBORS    CLEAR     46  34  61 NW5       29.87S
SILVER BAY     CLEAR     43  30  61 NW5       29.86S
GRAND MARAIS     N/A     41  32  70 CALM      29.86R
G MARAIS ARPRT CLEAR     37  28  70 NW8       29.84R
$$
MNZ029>031-032-039>041-046>048-054>057-064-040900-
   West Central Minnesota

CITY           SKY/WX    TMP DP  RH WIND       PRES   REMARKS
FERGUS FALLS   CLEAR     46  36  66 N6        29.98R
WHEATON        CLEAR     45  34  65 N5        30.02R
MORRIS         CLEAR     46  34  61 N9        29.97R
ALEXANDRIA     CLEAR     47  34  60 NE10      29.97S
ELBOW LAKE     FAIR      47  36  64 N8        29.99R
WADENA         CLEAR     39  32  75 NW6       29.97S
GLENWOOD       CLEAR     45  34  65 N8        29.97R
APPLETON       CLEAR     45  34  65 N7        29.97R
BENSON         CLEAR     41  30  65 N8        29.97R
ORTONVILLE     CLEAR     46  32  57 NW7       29.99R
MADISON        CLEAR     46  34  61 N10       29.98R
WILLMAR        FAIR      48  36  61 N7        29.96R
$$
MNZ033>034-036-042>043-049>051-058-059-040900-
   Central Minnesota

CITY           SKY/WX    TMP DP  RH WIND       PRES   REMARKS
ST CLOUD       CLEAR     45  33  63 N6        29.93R
SAUK CENTRE    FAIR      44  33  66 N6        29.96R
PAYNESVILLE    CLEAR     46  32  57 N3        29.95R
AITKIN         CLEAR     39  28  65 CALM      29.93S
PINE RIVER     CLEAR     39  32  75 CALM      30.00R
BRAINERD       CLEAR     44  32  62 N6        29.96R
STAPLES        CLEAR     39  32  75 CALM      29.97R
LONG PRAIRIE   FAIR      43  32  65 NW5       29.96R
LITTLE FALLS   CLEAR     45  32  61 CALM      29.96R
LITCHFIELD     CLEAR     48  34  57 N9        29.94R
BUFFALO        CLEAR     50  32  51 N8        29.93R
MAPLE LAKE     CLEAR     49  36  61 N8        29.93R
HUTCHINSON     CLEAR     47  36  63 N5        29.94R
$$
MNZ037-044-045-052-053-040900-
   East Central Minnesota

CITY           SKY/WX    TMP DP  RH WIND       PRES   REMARKS
PRINCETON      CLEAR     46  34  61 N6        29.93R
MORA           CLEAR     45  32  61 CALM      29.94R
CAMBRIDGE      CLEAR     48  34  57 N3        29.90R
RUSH CITY      PTCLDY    44  32  64 N5        29.91R
MOOSE LAKE     CLEAR     43  32  65 N6        29.90R
HINCKLEY       CLOUDY    45  32  61 N6        29.91S
CLOQUET        CLEAR     41  30  65 NW5       29.91S
MCGREGOR       CLEAR     43  32  65 NW6       29.94R
$$
MNZ071>073-080-081-089-090-097-098-040900-
   Southwest Minnesota

CITY           SKY/WX    TMP DP  RH WIND       PRES   REMARKS
MONTEVIDEO     CLEAR     48  34  57 NE13      29.98R
GRANITE FALLS  CLEAR     51  34  52 N10G16    29.97R
CANBY          CLEAR     47  36  63 W9        29.99R
MARSHALL       CLEAR     43  32  65 NW10      29.96R
REDWOOD FALLS  CLEAR     49  30  48 N8        29.93R
OLIVIA         CLEAR     45  32  61 N8        29.93R
PIPESTONE      CLEAR     46  30  53 N6        29.96R
WINDOM         CLEAR     46  30  53 NW14      29.92R
WORTHINGTON    CLEAR     45  33  63 N12       29.93R
JACKSON        CLEAR     46  32  57 N7        29.91R
TRACY          CLEAR     47  32  56 NW10      29.95R
SLAYTON        CLEAR     47  31  53 NW12G18   29.95R
$$
MNZ065>067-074>077-082>085-091>093-040900-
   South Central Minnesota

CITY           SKY/WX    TMP DP  RH WIND       PRES   REMARKS
MANKATO        CLEAR     50  30  46 N12       29.89R
NEW ULM        CLEAR     48  32  53 VRB6      29.91R
ST JAMES       CLEAR     45  28  53 NW12      29.91R
FAIRMONT       CLEAR     48  28  46 N13       29.88R
GLENCOE        CLEAR     50  37  62 N5        29.91R
FARIBAULT      CLEAR     52  34  50 N9        29.88R
OWATONNA       CLEAR     52  32  46 N13       29.86R
WASECA         CLEAR     46  32  57 N9        29.88R
ALBERT LEA     CLEAR     52  32  46 N10       29.84R
$$
MNZ078>079-086>088-094>096-040900-
   Southeast Minnesota

CITY           SKY/WX    TMP DP  RH WIND       PRES   REMARKS
ROCHESTER      CLEAR     49  39  68 N15       29.84R
RED WING       CLEAR     50  32  50 N9        29.86R
STANTON        CLEAR     52  32  47 NE16G22   29.86R
DODGE CENTER   PTCLDY    46  34  61 N8        29.85R
WINONA         CLEAR     52  37  58 N6G16     29.82R
AUSTIN         CLEAR     48  37  66 N7        29.83R
PRESTON        CLEAR     46  39  76 N9        29.81R
$$
ABBREVIATIONS USED IN REMARKS
   TC - TEMPERATURES IN CELSIUS
  WCI - WIND CHILL INDEX
   HX - HEAT INDEX
  VSB - VISIBILITY
$$



USA.gov is the U.S. government's official web portal to all federal, state and local government web resources and services.